If you wish to contribute or participate in the discussions about articles you are invited to join SKYbrary as a registered user

 Actions

Hamad International Airport

From SKYbrary Wiki

OTHH
Airport
ICAO: OTHH – IATA: DOH
Summary
Name Hamad International Airport
Region Middle East
Territory Qatar QA.gif
Location Doha, Qatar
Serving Doha
Elevation 3.962 m
13 ft3.962 m
Coordinates 25° 15' 38.14" N, 51° 36' 49.56" E
Runways
Designator Length Width Surface ROPS


METAR
Observation OTHH 060400Z AUTO 32017KT CAVOK 35/17 Q1001 NOSIG
Station Doha International Airport
Date/Time 06 June 2020 04:00:00
Wind direction 320°
Wind speed 17 kts
Lowest cloud amount clouds and visibility OK
Temperature 35°C
Dew point 17°C
Humidity 34%
QNH 1001 hPa
Weather condition n/a

International airport serving Qatar.

Climatology

Hot Desert Climate (Köppen climate classification BWh) - Hot desert climates are typically found in the subtropics where there is unbroken sunshine for the whole year due to the stable descending air and high pressure, little or no precipitation. Maximum temperatures of 40°C to 45°C are not uncommon, particularly during the warmer months of the year.

Maps

Terrain

Loading map...

Airport Layout

Loading map...


Accidents & Serious Incidents at or in vicinity of OTHH

None on SKYbrary